Location: Seattle
(47.6064°N, 122.3308°W)
Time: 20:50:04
(UTC-08:00)

Tiangong - Visible Passes

Search period start: 29 November 2022 00:00
Search period end: 09 December 2022 00:00
Orbit: 385 x 393 km, 41.5° (Epoch: 29 November)

Date Brightness Start Highest point End Pass type
(mag) Time Alt. Az. Time Alt. Az. Time Alt. Az.
30 Nov 0.2 18:19:50 10° SSW 18:21:24 15° S 18:21:24 15° S visible
01 Dec 0.5 17:22:52 10° S 17:23:52 11° SSE 17:24:55 10° SE visible
01 Dec 0.7 18:57:30 10° SW 18:58:19 15° SW 18:58:19 15° SW visible
02 Dec -0.2 17:59:39 10° SW 18:02:06 20° SSE 18:02:52 19° SE visible
03 Dec 0.3 17:01:58 10° SSW 17:04:03 16° SSE 17:06:07 10° ESE visible
03 Dec -0.1 18:37:40 10° WSW 18:39:41 24° SSW 18:39:41 24° SSW visible
04 Dec -0.3 17:39:36 10° SW 17:42:16 25° S 17:44:09 15° SE visible
04 Dec 1.2 19:16:05 10° WSW 19:16:27 12° WSW 19:16:27 12° WSW visible
05 Dec -0.5 18:17:47 10° WSW 18:20:32 26° S 18:20:54 25° S visible
06 Dec -0.3 17:19:32 10° WSW 17:22:17 27° S 17:25:02 10° ESE visible
06 Dec 0.6 18:56:19 10° WSW 18:57:41 17° SW 18:57:41 17° SW visible
07 Dec -0.1 17:57:50 10° WSW 18:00:27 23° S 18:02:11 15° SSE visible
08 Dec -0.1 16:59:26 10° WSW 17:02:08 26° S 17:04:51 10° SE visible
08 Dec 0.5 18:36:40 10° SW 18:38:28 14° SSW 18:39:03 14° S visible
